Zurück zum Katalog

COSMOS 2251 DEB

AktivLEO
NORAD 36441·DEBRIS·🇷🇺 Russia

Gestartet Jun 16, 1993 von Plesetsk Cosmodrome

Loading…

Nächste Überflüge (nächste 24 Stunden)

TLE

AlterndSource: Space-Track

Epoche: Sep 11, 2026, 01:00 UTC

1 36441U 93036BAQ 26254.04170287  .00004920  00000-0  26298-3 0  9992
2 36441  73.8344 141.3205 0102800 184.1568 175.8783 15.10880745910737

Verfolge COSMOS 2251 DEB in Echtzeit mit AllMySat

Download on the App Store